Weather History for KLYV - August, 2014

Change the Weather History Date:

Friday, August 22, 2014

  Actual Average (KFSD) Record (KFSD)
Temperature  
Mean Temperature 74 °F 70 °F  
Max Temperature 86 °F 81 °F 103 °F (1971)
Min Temperature 62 °F 59 °F 41 °F (1904)
Degree Days  
Heating Degree Days 0 1  
Month to date heating degree days 9  
Since 1 June heating degree days 68  
Since 1 July heating degree days 17  
Cooling Degree Days 9 6  
Month to date cooling degree days 154  
Year to date cooling degree days 581  
Since 1 June cooling degree days 545  
Growing Degree Days 24 (Base 50)    
Moisture  
Dew Point 67 °F    
Average Humidity 77    
Maximum Humidity 94    
Minimum Humidity 51    
Precipitation  
Precipitation 0.00 in 0.09 in 1.38 in (1957)
Month to date precipitation 2.18  
Year to date precipitation 18.52  
Snow  
Snow 0.00 in 0.00 in 0.00 in ()
Month to date snowfall 0.0  
Since 1 June snowfall 0.0  
Since 1 July snowfall 0.0  
Snow Depth -    
Sea Level Pressure  
Sea Level Pressure 29.97 in    
Wind  
Wind Speed 3 mph (ENE)    
Max Wind Speed 9 mph    
Max Gust Speed -    
Visibility 9 miles    
Events      
T = Trace of Precipitation, MM = Missing Value Source: NWS Daily Summary

Daily Weather History Graph

Daily Weather History Graph

Search for Another Location

Airport or City:

Trip Planner

Search our weather history database for the weather conditions in past years. The results will help you decide how hot, cold, wet, or windy it might be!

Date:

Astronomy

Aug. 22, 2014 Rise Set
Actual Time 6:37 AM CDT 8:17 PM CDT
Civil Twilight 6:07 AM CDT 8:47 PM CDT
Nautical Twilight 5:30 AM CDT 9:24 PM CDT
Astronomical Twilight 4:50 AM CDT 10:03 PM CDT
Moon 3:58 AM CDT (8/22) 6:27 PM CDT (8/22)
Length of Visible Light 14h 40m
Length of Day
13h 39m
Waning Crescent, 7% of the Moon is Illuminated
Aug 22
Waning Crescent
Aug 25
New
Sep 2
First Quarter
Sep 8
Full
Sep 15
Last Quarter

Hourly Weather History & Observations

Time (CDT) Temp. Heat Index Dew Point Humidity Pressure Visibility Wind Dir Wind Speed Gust Speed Precip Events Conditions
12:14 AM 69.8 °F - 66.2 °F 88% 29.91 in 10.0 mi Calm Calm - N/A   Clear
12:34 AM 69.8 °F - 66.2 °F 88% 29.90 in 10.0 mi Calm Calm - N/A   Clear
12:55 AM 69.8 °F - 66.2 °F 88% 29.90 in 10.0 mi Calm Calm - N/A   Clear
1:35 AM 69.8 °F - 64.4 °F 83% 29.90 in 10.0 mi Calm Calm - N/A   Clear
1:54 AM 68.0 °F - 64.4 °F 88% 29.89 in 10.0 mi Calm Calm - N/A   Clear
2:15 AM 68.0 °F - 64.4 °F 88% 29.89 in 10.0 mi Calm Calm - N/A   Clear
2:34 AM 68.0 °F - 64.4 °F 88% 29.90 in 10.0 mi Calm Calm - N/A   Clear
2:54 AM 68.0 °F - 62.6 °F 83% 29.90 in 10.0 mi Calm Calm - N/A   Clear
3:15 AM 64.4 °F - 62.6 °F 94% 29.91 in 7.0 mi Calm Calm - N/A   Clear
3:34 AM 66.2 °F - 62.6 °F 88% 29.92 in 10.0 mi Calm Calm - N/A   Clear
3:54 AM 64.4 °F - 62.6 °F 94% 29.92 in 10.0 mi Calm Calm - N/A   Clear
4:15 AM 64.4 °F - 62.6 °F 94% 29.93 in 7.0 mi Calm Calm - N/A   Clear
4:34 AM 64.4 °F - 62.6 °F 94% 29.93 in 10.0 mi Calm Calm - N/A   Clear
4:55 AM 62.6 °F - 60.8 °F 94% 29.94 in 0.8 mi Calm Calm - N/A   Mist
5:14 AM 62.6 °F - 60.8 °F 94% 29.93 in 7.0 mi Calm Calm - N/A   Clear
5:35 AM 64.4 °F - 62.6 °F 94% 29.93 in 7.0 mi NNW 3.5 mph - N/A   Clear
5:54 AM 64.4 °F - 62.6 °F 94% 29.93 in 7.0 mi NNW 3.5 mph - N/A   Clear
6:14 AM 64.4 °F - 62.6 °F 94% 29.94 in 7.0 mi Calm Calm - N/A   Clear
6:34 AM 62.6 °F - 60.8 °F 94% 29.94 in 4.0 mi Calm Calm - N/A   Clear
6:54 AM 64.4 °F - 60.8 °F 88% 29.94 in 4.0 mi Calm Calm - N/A   Clear
7:14 AM 62.6 °F - 60.8 °F 94% 29.94 in 4.0 mi Calm Calm - N/A   Clear
7:34 AM 66.2 °F - 64.4 °F 94% 29.94 in 5.0 mi Calm Calm - N/A   Clear
7:55 AM 68.0 °F - 64.4 °F 88% 29.95 in 5.0 mi Calm Calm - N/A   Clear
8:14 AM 69.8 °F - 66.2 °F 88% 29.95 in 7.0 mi NE 3.5 mph - N/A   Clear
8:34 AM 71.6 °F - 68.0 °F 88% 29.96 in 7.0 mi Calm Calm - N/A   Scattered Clouds
8:54 AM 71.6 °F - 68.0 °F 88% 29.96 in 10.0 mi NE 5.8 mph - N/A   Overcast
9:15 AM 73.4 °F - 68.0 °F 83% 29.97 in 10.0 mi NE 6.9 mph - N/A   Mostly Cloudy
9:34 AM 77.0 °F - 68.0 °F 74% 29.97 in 10.0 mi NNE 8.1 mph - N/A   Scattered Clouds
9:55 AM 77.0 °F - 69.8 °F 78% 29.98 in 10.0 mi NE 6.9 mph - N/A   Scattered Clouds
10:14 AM 78.8 °F - 69.8 °F 74% 29.98 in 10.0 mi NNE 6.9 mph - N/A   Clear
10:34 AM 80.6 °F 83.9 °F 69.8 °F 70% 29.99 in 10.0 mi NE 9.2 mph - N/A   Clear
10:54 AM 78.8 °F - 69.8 °F 74% 29.99 in 10.0 mi NE 5.8 mph - N/A   Unknown
11:14 AM 80.6 °F 83.9 °F 69.8 °F 70% 29.99 in 10.0 mi ENE 9.2 mph - N/A   Unknown
11:34 AM 80.6 °F 83.9 °F 69.8 °F 70% 29.99 in 10.0 mi East 8.1 mph - N/A   Clear
11:55 AM 82.4 °F 86.3 °F 69.8 °F 66% 29.99 in 10.0 mi NE 8.1 mph - N/A   Clear
12:14 PM 82.4 °F 85.4 °F 68.0 °F 62% 29.99 in 10.0 mi NE 9.2 mph - N/A   Scattered Clouds
12:34 PM 82.4 °F 85.4 °F 68.0 °F 62% 29.99 in 10.0 mi NE 6.9 mph - N/A   Scattered Clouds
12:54 PM 82.4 °F 85.4 °F 68.0 °F 62% 30.00 in 10.0 mi East 5.8 mph - N/A   Scattered Clouds
1:14 PM 82.4 °F 85.4 °F 68.0 °F 62% 29.99 in 10.0 mi NE 5.8 mph - N/A   Scattered Clouds
1:35 PM 82.4 °F 85.4 °F 68.0 °F 62% 29.99 in 10.0 mi NNE 5.8 mph - N/A   Scattered Clouds
1:54 PM 84.2 °F 87.3 °F 68.0 °F 58% 29.99 in 10.0 mi East 6.9 mph - N/A   Scattered Clouds
2:15 PM 82.4 °F 85.4 °F 68.0 °F 62% 29.99 in 10.0 mi NE 5.8 mph - N/A   Scattered Clouds
2:34 PM 86.0 °F 88.2 °F 66.2 °F 51% 29.99 in 10.0 mi NE 6.9 mph - N/A   Scattered Clouds
2:54 PM 86.0 °F 89.4 °F 68.0 °F 55% 29.98 in 10.0 mi East 8.1 mph - N/A   Scattered Clouds
3:14 PM 86.0 °F 89.4 °F 68.0 °F 55% 29.98 in 10.0 mi ESE 6.9 mph - N/A   Scattered Clouds
3:34 PM 86.0 °F 89.4 °F 68.0 °F 55% 29.98 in 10.0 mi ESE 4.6 mph - N/A   Scattered Clouds
3:54 PM 84.2 °F 87.3 °F 68.0 °F 58% 29.98 in 10.0 mi ENE 8.1 mph - N/A   Scattered Clouds
4:14 PM 82.4 °F 85.4 °F 68.0 °F 62% 29.98 in 10.0 mi ENE 5.8 mph - N/A   Scattered Clouds
4:35 PM 82.4 °F 85.4 °F 68.0 °F 62% 29.98 in 10.0 mi East 6.9 mph - N/A   Scattered Clouds
4:54 PM 84.2 °F 87.3 °F 68.0 °F 58% 29.99 in 10.0 mi East 4.6 mph - N/A   Scattered Clouds
5:15 PM 84.2 °F 87.3 °F 68.0 °F 58% 29.99 in 10.0 mi ENE 5.8 mph - N/A   Clear
5:34 PM 82.4 °F 83.9 °F 64.4 °F 54% 29.99 in 10.0 mi NE 3.5 mph - N/A   Clear
5:55 PM 82.4 °F 85.4 °F 68.0 °F 62% 29.98 in 10.0 mi NNE 4.6 mph - N/A   Clear
6:14 PM 82.4 °F 85.4 °F 68.0 °F 62% 29.98 in 10.0 mi NE 4.6 mph - N/A   Clear
6:34 PM 82.4 °F 85.4 °F 68.0 °F 62% 29.98 in 10.0 mi ENE 4.6 mph - N/A   Clear
6:54 PM 82.4 °F 85.4 °F 68.0 °F 62% 29.98 in 10.0 mi ENE 5.8 mph - N/A   Clear
7:14 PM 80.6 °F 83.9 °F 69.8 °F 70% 29.98 in 10.0 mi ENE 6.9 mph - N/A   Clear
7:34 PM 80.6 °F 83.9 °F 69.8 °F 70% 29.97 in 10.0 mi NE 4.6 mph - N/A   Clear
7:54 PM 78.8 °F - 69.8 °F 74% 29.98 in 10.0 mi ENE 5.8 mph - N/A   Clear
8:15 PM 78.8 °F - 69.8 °F 74% 29.99 in 10.0 mi ENE 4.6 mph - N/A   Clear
8:34 PM 77.0 °F - 69.8 °F 78% 29.99 in 10.0 mi ENE 4.6 mph - N/A   Clear
8:55 PM 77.0 °F - 69.8 °F 78% 30.00 in 10.0 mi NE 6.9 mph - N/A   Clear
9:14 PM 77.0 °F - 69.8 °F 78% 30.00 in 10.0 mi ENE 5.8 mph - N/A   Clear
9:54 PM 73.4 °F - 69.8 °F 88% 30.02 in 10.0 mi East 4.6 mph - N/A   Clear
10:14 PM 73.4 °F - 69.8 °F 88% 30.02 in 10.0 mi ESE 3.5 mph - N/A   Clear
10:34 PM 71.6 °F - 68.0 °F 88% 30.01 in 10.0 mi East 3.5 mph - N/A   Clear
10:54 PM 71.6 °F - 68.0 °F 88% 30.00 in 10.0 mi ENE 4.6 mph - N/A   Clear
11:15 PM 73.4 °F - 68.0 °F 83% 30.00 in 10.0 mi East 5.8 mph - N/A   Clear
11:34 PM 71.6 °F - 68.0 °F 88% 30.00 in 10.0 mi Calm Calm - N/A   Clear
11:54 PM 71.6 °F - 68.0 °F 88% 29.99 in 10.0 mi ENE 3.5 mph - N/A   Clear